Regional Weather Roundup
Issued by NWS

Home | Current Version | Previous Version | Graphics & Text | Print | Product List | Glossary On
Versions: 1 2 3 4 5 6 7 8 9 10 11 12 13 14 15 16 17 18 19 20 21 22 23 24 25 26 27 28 29 30 31 32 33 34 35 36 37 38 39 40 41 42 43 44 45 46 47 48 49 50
000
ASUS43 KFSD 201502
RWRSD

WEATHER ROUNDUP FOR SOUTH DAKOTA
NATIONAL WEATHER SERVICE SIOUX FALLS SD
1000 AM CDT FRI APR 20 2018

NOTE: "FAIR" INDICATES FEW OR NO CLOUDS BELOW 12,000 FEET WITH NO
SIGNIFICANT WEATHER AND/OR OBSTRUCTIONS TO VISIBILITY.


SDZ001>005-009-010-012>017-201600-
NORTHWEST AND NORTH CENTRAL SOUTH DAKOTA

CITY           SKY/WX    TMP DP  RH WIND       PRES   REMARKS
BUFFALO          N/A     46  28  49 SE20      30.09F
FAITH            N/A     39  32  76 SE17      30.21S
MOBRIDGE       CLOUDY    42  31  64 S13       30.28F
$$

SDZ012>016-024>037-041>051-057-063-072>074-201600-
SOUTHWEST AND SOUTH CENTRAL SOUTH DAKOTA

CITY           SKY/WX    TMP DP  RH WIND       PRES   REMARKS
RAPID CTY ARPT CLOUDY    43  30  60 SE16      30.15S
PIERRE         CLOUDY    39  32  76 SE15      30.29S
CUSTER         CLOUDY    37  24  59 SE7       30.11S
ELLSWORTH AFB  CLOUDY    45  30  55 S17       30.14S
PHILIP         CLOUDY    40  33  76 E13       30.23S
PINE RIDGE     CLOUDY    46  30  53 SE9       30.15R
SPEARFISH      FAIR      45  28  53 SE16      30.10F
WINNER         FAIR      41  30  65 SE15      30.29S
$$

SDZ004>011-016>023-039-040-201600-
NORTHEAST SOUTH DAKOTA

CITY           SKY/WX    TMP DP  RH WIND       PRES   REMARKS
ABERDEEN       PTSUNNY   42  30  62 S13       30.40F
WATERTOWN      CLOUDY    38  28  67 S13       30.41S
BROOKINGS      CLOUDY    38  28  67 SE13      30.43S
SISSETON         N/A     41  31  67 SE7       30.43R
$$

SDZ017-020-022-023-036>040-048>070-201600-
SOUTHEAST SOUTH DAKOTA

CITY           SKY/WX    TMP DP  RH WIND       PRES   REMARKS
SIOUX FALLS    CLOUDY    39  26  59 SE9       30.43S
HURON          CLOUDY    36  28  73 SE13      30.39F
CHAMBERLAIN    CLOUDY    39  35  85 SE12      30.34S
MITCHELL       CLOUDY    36  29  75 SE10      30.39F
YANKTON        CLOUDY    37  31  78 E7        30.41S
$$

ABBREVIATIONS USED IN REMARKS
   TC - TEMPERATURE IN CELSIUS
  WCI - WIND CHILL INDEX
   HX - HEAT INDEX
  VSB - VISIBILITY





USA.gov is the U.S. government's official web portal to all federal, state and local government web resources and services.